Location: ??????
(41.3164°N, 22.6615°E)
Time: 05:55:11
(UTC+00:00)

ZACube-1 - Pass Details

Date: 29 June 2022
Orbit: 582 x 661 km, 97.6° (Epoch: 11 August)

Event Time Altitude Azimuth Distance (km) Brightness Sun altitude
Rises 01:36:25 0° 24° (NNE) 2,944 ? -12.7°
Reaches altitude 10° 01:38:54 10° 37° (NE) 2,043 ? -12.4°
Maximum altitude 01:42:41 27° 95° (E) 1,260 ? -11.9°
Drops below altitude 10° 01:46:29 10° 153° (SSE) 2,060 ? -11.4°
Sets 01:49:00 0° 166° (SSE) 2,973 ? -11.1°
